This is the latest recevied weather packets stored in our database for station/object LU3HGB-WX. If no packets are shown the sender has not sent any weather packets the latest 10 day(s).
| Time | Temp. | Humidity | Pressure | Rain* | Wind** | Luminosity | Snow |
|---|---|---|---|---|---|---|---|
| 1788535660 | 16.67° C | 28% | 1020 hPa | 0 mm | - | 443 W/m² | - |
| 1788535360 | 16.67° C | 28% | 1020 hPa | 0 mm | - | 443 W/m² | - |
| 1788535060 | 16.67° C | 27% | 1020 hPa | 0 mm | - | 468 W/m² | - |
| 1788534760 | 16.11° C | 29% | 1020 hPa | 0 mm | - | 514 W/m² | - |
| 1788534460 | 16.11° C | 29% | 1020 hPa | 0 mm | - | 471 W/m² | - |
| 1788534161 | 16.11° C | 28% | 1020 hPa | 0 mm | - | 397 W/m² | - |
| 1788533860 | 16.11° C | 31% | 1020 hPa | 0 mm | - | 446 W/m² | - |
| 1788533559 | 16.67° C | 30% | 1020 hPa | 0 mm | - | 464 W/m² | - |
| 1788533260 | 16.11° C | 30% | 1020 hPa | 0 mm | - | 457 W/m² | - |
| 1788532960 | 16.11° C | 29% | 1020 hPa | 0 mm | - | 674 W/m² | - |
| 1788532663 | 16.11° C | 30% | 1020 hPa | 0 mm | - | 953 W/m² | - |
| 1788532360 | 16.11° C | 32% | 1020 hPa | 0 mm | - | 500 W/m² | - |
| 1788532061 | 16.11° C | 30% | 1020 hPa | 0 mm | - | 451 W/m² | - |
| 1788531760 | 16.11° C | 32% | 1020 hPa | 0 mm | - | 468 W/m² | - |
| 1788531459 | 15.56° C | 30% | 1020 hPa | 0 mm | - | 663 W/m² | - |
| 1788531160 | 15.56° C | 32% | 1020 hPa | 0 mm | - | 577 W/m² | - |
| 1788530860 | 15° C | 35% | 1020 hPa | 0 mm | - | 839 W/m² | - |
| 1788530560 | 15° C | 36% | 1021 hPa | 0 mm | - | 402 W/m² | - |
| 1788530260 | 14.44° C | 37% | 1021 hPa | 0 mm | - | 519 W/m² | - |
| 1788529960 | 14.44° C | 38% | 1021 hPa | 0 mm | - | 446 W/m² | - |
| 1788529659 | 13.89° C | 40% | 1020 hPa | 0 mm | - | 727 W/m² | - |
| 1788529360 | 13.33° C | 39% | 1021 hPa | 0 mm | - | 488 W/m² | - |
| 1788529059 | 12.78° C | 44% | 1021 hPa | 0 mm | - | 373 W/m² | - |
| 1788528760 | 12.78° C | 42% | 1021 hPa | 0 mm | - | 349 W/m² | - |
| 1788528460 | 12.22° C | 42% | 1021 hPa | 0 mm | - | 391 W/m² | - |
* Rain latest hour (hover to see other rain measurements)
** Current wind speed in m/s (hover to see current wind gust speed)